Wind_Speed
15 13 14 15 16 14 13 12 9 7 9 10 11 14 14 14 8 5 6 11 15 18 20 26 32 37 41 47 49 51 57 61 63 66 64 61 63 61 64 63 62 60 58 57 56 55 55 56 58
16 15 15 14 15 14 15 12 7 6 6 8 9 11 14 15 14 11 7 8 11 16 20 22 27 34 40 44 47 50 53 60 63 64 65 63 64 65 65 66 66 65 65 63 62 61 60 61 61
16 16 14 14 12 12 15 15 11 8 6 5 7 8 12 15 15 16 14 12 11 12 15 22 24 27 34 40 46 48 50 54 60 63 67 67 66 65 65 64 64 67 67 68 67 66 65 64 63
14 14 14 14 12 12 11 13 13 11 8 7 4 5 7 14 19 18 17 17 17 16 15 17 20 26 29 33 39 46 52 52 57 60 65 67 70 69 69 70 70 69 70 70 71 71 70 70 68
15 12 13 13 13 13 11 8 12 12 10 7 6 7 7 8 12 18 20 21 22 22 21 20 17 22 25 28 33 38 46 51 56 58 62 66 66 70 72 72 73 72 72 72 75 75 75 74 73
17 15 13 14 13 11 12 9 10 12 14 10 8 8 7 8 8 11 15 20 22 23 24 24 24 22 20 22 27 31 37 42 49 56 60 63 66 68 70 71 71 75 74 74 75 78 77 76 78
17 16 15 15 15 13 11 10 8 10 12 13 11 11 11 11 13 14 14 15 17 20 23 25 27 28 29 26 24 25 30 34 41 46 53 59 64 67 71 73 73 75 79 79 79 78 78 79 79
16 16 17 15 16 17 15 11 10 8 14 16 16 12 11 13 15 15 16 18 19 21 20 19 19 24 29 32 32 30 28 29 31 36 42 45 50 57 64 69 71 73 77 79 79 79 80 80 80
15 15 17 16 16 16 16 16 12 9 13 17 20 20 16 11 13 15 18 20 21 20 21 22 22 21 20 21 27 34 34 33 32 34 36 36 39 42 46 52 57 64 68 70 72 76 79 81 82
16 14 15 16 17 17 18 18 16 13 15 18 21 23 26 23 22 15 16 20 20 20 21 21 22 23 22 20 22 22 26 34 38 37 39 41 41 41 41 42 43 46 53 58 63 67 70 73 73
17 16 15 16 17 19 20 22 20 19 17 21 22 26 29 27 27 27 28 26 27 27 26 27 27 27 26 25 23 23 23 25 28 34 41 44 44 45 45 47 46 45 45 46 48 51 56 60 64
19 19 18 19 19 22 23 23 24 25 25 22 25 26 29 32 33 34 34 31 30 30 33 34 33 34 34 32 31 31 31 29 30 31 33 37 40 44 48 48 50 51 50 48 48 48 48 49 49
24 21 22 22 24 27 27 26 26 25 26 27 26 28 30 32 30 30 31 32 33 34 35 35 37 37 36 38 39 39 38 39 37 35 35 36 39 42 43 43 45 51 53 52 52 53 54 54 53
28 28 27 27 27 30 31 31 29 29 27 29 31 30 31 33 32 32 32 33 35 36 36 36 37 39 41 40 40 42 44 43 43 43 42 40 40 41 42 44 45 46 47 48 52 57 57 57 57
33 34 34 33 31 30 31 33 32 32 30 29 30 31 33 33 35 36 38 40 39 40 42 42 43 44 45 45 45 45 47 49 49 47 44 45 44 44 45 46 46 46 47 49 51 52 54 54 56
33 36 38 35 34 34 34 40 38 37 36 35 36 35 35 36 37 38 40 43 44 44 44 45 48 50 51 51 51 51 53 53 53 54 52 50 49 49 49 49 50 50 50 49 51 53 53 54 56
37 38 40 40 40 37 38 43 43 40 39 41 42 42 42 43 42 43 44 45 44 43 43 46 48 49 51 52 52 53 54 53 53 53 55 57 58 57 57 56 56 55 54 53 54 56 57 56 55
37 38 39 44 43 40 41 42 49 45 46 47 48 47 47 46 44 43 45 47 49 51 52 52 52 52 51 52 52 53 55 57 57 57 57 58 61 63 64 64 65 65 63 62 60 58 57 57 61
39 39 41 46 45 41 43 42 45 47 47 49 49 49 48 49 49 49 51 53 56 58 57 56 58 59 59 59 59 59 60 61 62 63 61 61 64 70 72 70 70 71 72 72 71 68 65 62 62
44 42 45 45 46 44 43 41 44 47 49 47 49 50 52 54 56 56 58 59 57 60 66 67 67 66 67 67 65 65 68 68 68 69 70 68 69 69 70 74 79 82 80 78 79 78 76 74 71
41 45 46 43 45 41 41 40 46 49 51 53 57 59 61 63 63 65 69 68 68 71 71 70 75 74 74 74 76 77 77 78 78 78 77 76 78 80 80 81 81 82 81 82 83 84 84 83 82
42 47 43 44 44 42 42 43 49 55 57 56 58 60 62 62 65 70 72 73 77 73 79 78 78 81 84 83 82 83 87 88 87 88 89 90 88 89 90 89 89 89 90 91 91 89 88 91 92
42 46 49 49 47 47 50 51 44 52 58 62 66 66 63 60 60 64 62 61 67 73 74 76 81 83 84 91 93 93 95 96 100 98 100 100 102 102 101 101 99 99 100 99 98 97 97 96 95
50 49 52 51 50 48 58 58 53 53 60 65 70 71 71 72 70 69 68 66 70 66 71 77 76 82 84 87 88 90 94 95 100 101 104 105 109 110 109 114 113 111 110 109 110 108 107 105 105
55 56 56 56 59 62 61 59 58 64 67 72 73 78 79 72 68 71 71 71 70 74 74 76 84 87 94 95 101 101 98 100 94 102 108 107 107 111 114 114 113 117 120 118 117 119 118 117 114
60 61 62 60 58 61 69 68 70 77 78 78 82 80 78 79 81 80 78 82 85 82 81 80 81 83 91 93 94 93 96 101 104 104 105 111 118 117 114 113 116 122 119 121 124 125 126 124 125
66 66 70 71 70 71 65 63 72 76 78 78 76 77 78 77 83 83 85 88 96 93 90 89 95 95 97 98 99 98 101 102 106 106 109 114 115 116 119 120 124 125 127 130 130 134 132 133 133
70 73 76 81 82 77 69 66 68 78 86 84 87 88 85 87 86 91 97 102 105 103 109 112 111 108 108 108 105 106 107 108 106 107 111 115 118 120 124 127 129 129 128 131 133 135 137 138 139
80 81 85 87 85 89 84 76 80 87 90 91 91 88 91 91 95 100 105 110 114 118 123 125 128 123 121 114 110 111 109 112 111 109 109 110 112 114 118 121 124 128 131 138 140 138 139 140 141
82 84 90 89 87 81 89 73 86 96 98 90 92 95 93 101 100 105 112 116 125 131 135 139 133 131 123 115 113 115 113 110 107 105 103 103 103 104 105 106 109 112 116 120 124 131 137 140 143
Wind_Direction
320 319 318 323 331 332 341 347 348 305 285 276 268 261 266 278 288 292 229 225 234 237 240 239 238 236 230 229 230 230 230 229 227 229 231 232 234 231 225 227 229 233 235 235 238 239 240 242 246
321 321 318 327 327 336 340 349 354 345 304 273 266 259 252 264 286 291 276 239 231 238 240 241 238 236 236 234 233 233 234 233 232 233 235 236 236 237 233 231 232 233 235 237 238 241 243 245 246
320 318 315 319 325 333 333 339 357 2 351 306 284 273 250 244 256 275 280 268 259 241 234 239 243 240 239 238 237 237 237 237 235 236 236 240 241 240 239 239 240 239 239 240 242 243 245 246 247
318 318 309 310 318 317 329 331 343 350 3 347 321 297 257 239 241 248 259 267 271 268 255 235 238 241 242 241 241 241 240 240 239 239 239 241 243 244 244 244 243 243 244 245 245 246 247 247 249
312 307 305 303 307 306 317 326 331 338 350 340 337 325 301 277 244 246 250 256 263 269 271 269 260 241 245 248 249 247 244 243 243 242 242 242 244 246 247 248 248 248 248 249 248 249 250 250 252
305 303 297 299 300 298 302 314 323 334 332 333 326 315 299 291 268 251 250 255 256 258 263 272 278 277 265 257 252 255 253 251 250 247 246 246 247 246 247 249 251 251 251 253 253 253 253 254 255
307 305 300 294 295 292 287 301 313 342 313 306 316 297 281 276 273 277 272 272 271 265 263 264 270 274 279 275 272 262 256 257 255 253 252 251 250 249 249 250 252 252 253 254 254 255 257 259 259
296 301 298 298 287 291 291 290 300 331 309 312 302 296 271 272 279 284 289 292 294 295 290 283 273 269 269 272 275 271 268 268 263 258 255 255 257 256 254 253 254 255 254 254 255 255 256 256 257
291 289 292 295 291 288 287 290 289 299 302 301 299 295 294 277 296 306 314 313 310 303 298 298 296 285 277 279 275 271 274 273 273 274 271 265 260 258 259 260 259 259 258 258 258 258 257 258 259
298 290 284 287 288 287 285 282 281 281 278 283 292 292 294 294 296 282 297 300 303 305 300 298 296 294 290 282 279 280 279 274 272 270 268 268 269 269 264 262 260 260 260 260 260 260 260 259 259
299 291 287 284 284 283 283 283 280 278 273 273 276 289 293 287 285 289 292 291 292 292 290 290 291 290 287 285 284 282 283 282 276 271 268 268 268 266 267 269 268 266 266 265 263 262 262 262 261
294 296 295 287 285 281 283 287 287 286 286 282 279 276 279 285 289 288 287 286 286 288 290 290 287 289 290 284 281 281 280 278 279 281 280 274 269 268 266 267 268 269 268 268 268 268 266 264 264
293 292 288 286 285 290 290 287 287 289 292 296 293 289 287 286 282 289 290 289 289 287 285 285 286 285 285 287 286 282 278 278 278 276 277 275 275 273 269 267 267 267 267 268 268 269 269 270 269
291 290 288 288 286 288 287 291 297 293 291 289 290 291 287 282 283 284 284 288 291 289 287 283 283 285 285 285 284 284 283 281 278 277 275 274 271 272 272 272 270 266 266 266 264 263 263 266 267
283 285 287 289 290 286 288 290 294 293 292 285 283 282 282 281 278 277 280 283 282 282 284 284 284 283 282 282 284 284 284 284 284 281 277 277 274 270 268 269 269 270 271 270 268 265 265 264 265
283 284 284 284 287 290 295 295 298 295 297 293 290 287 283 282 281 282 280 278 276 274 275 277 278 278 279 279 278 279 283 282 282 284 282 279 277 275 273 271 268 267 266 265 268 270 268 266 264
278 280 285 284 286 290 292 290 294 293 290 289 289 287 284 283 280 277 276 275 274 272 271 272 272 273 274 275 276 277 277 277 278 278 278 281 281 279 278 277 273 271 269 265 264 263 265 267 266
283 285 284 283 289 294 292 289 288 291 289 288 287 287 287 285 281 280 279 277 272 271 270 269 268 269 269 269 268 269 270 272 271 271 273 273 273 275 277 277 277 276 273 270 267 265 264 265 266
284 285 286 282 287 291 289 288 283 288 286 284 284 283 284 279 279 282 283 283 282 278 274 272 270 268 269 268 269 266 267 268 268 269 267 267 268 269 270 270 271 272 273 274 272 270 266 263 263
284 284 282 285 285 284 286 281 278 282 282 285 285 285 282 279 272 273 276 277 278 281 280 277 274 272 269 267 265 267 266 265 265 263 262 262 262 263 265 267 268 268 267 268 268 269 269 269 264
284 281 281 282 281 282 281 278 280 285 286 284 280 279 278 280 278 274 273 276 278 277 278 280 277 274 273 271 269 268 266 265 264 263 261 262 262 262 260 261 262 263 264 265 265 265 265 264 264
279 278 280 280 280 280 281 280 284 283 282 282 280 277 278 279 280 280 278 279 277 280 277 276 279 278 275 274 272 272 271 270 269 268 266 261 261 263 264 261 260 261 261 261 262 264 262 263 262
275 279 283 284 275 279 281 278 282 283 286 290 291 289 289 288 288 294 290 284 281 277 277 279 278 275 277 276 274 274 275 275 272 271 270 267 267 266 265 263 263 262 261 260 260 261 262 260 259
276 278 282 284 278 279 277 275 281 280 290 297 294 290 293 293 289 296 300 299 294 289 285 280 281 274 277 275 273 274 275 276 274 272 272 272 269 269 269 266 266 265 264 263 261 260 258 260 261
274 279 278 275 275 281 278 279 275 276 285 293 295 291 287 286 289 292 296 293 302 297 298 291 284 278 277 274 270 272 273 276 280 274 271 272 268 267 265 263 265 265 264 263 262 262 261 261 260
270 275 276 278 281 283 280 277 276 280 286 291 292 285 289 300 305 306 305 305 309 305 302 293 289 288 289 287 286 284 284 283 278 276 274 272 267 267 267 265 264 263 261 261 259 260 259 258 258
270 274 274 279 284 289 288 286 279 281 287 286 289 289 297 304 311 311 311 309 312 312 307 300 300 299 297 296 293 291 289 289 286 282 275 274 270 268 267 267 265 263 262 260 259 260 258 259 259
271 275 280 283 286 287 285 282 280 283 283 290 290 296 300 304 309 312 315 315 316 314 315 314 312 308 304 302 296 293 292 291 290 287 284 280 276 272 270 268 265 263 262 260 259 258 259 259 259
272 275 281 283 288 290 285 292 286 286 285 294 298 301 306 309 314 315 314 313 313 314 314 313 312 310 308 304 301 298 294 293 288 285 281 278 276 275 274 271 269 267 266 263 261 260 260 260 260
274 278 281 282 284 292 287 292 287 282 286 293 299 303 307 312 314 312 312 313 314 314 312 312 311 312 309 304 301 297 294 292 290 286 283 280 279 278 276 273 271 269 268 266 264 263 262 262 261
Height
10808 10807 10805 10804 10803 10802 10802 10801 10800 10799 10799 10798 10798 10800 10800 10800 10802 10803 10804 10806 10807 10808 10809 10812 10814 10817 10821 10825 10829 10832 10834 10836 10838 10841 10844 10848 10852 10855 10858 10861 10864 10868 10870 10872 10874 10876 10877 10879 10881
10806 10805 10804 10804 10802 10800 10800 10801 10800 10799 10798 10797 10797 10798 10799 10800 10800 10801 10802 10803 10804 10806 10806 10807 10809 10812 10815 10818 10822 10825 10828 10831 10833 10836 10839 10842 10845 10848 10850 10853 10856 10859 10861 10863 10866 10868 10870 10872 10873
10804 10803 10802 10802 10801 10800 10799 10798 10799 10799 10797 10796 10797 10797 10798 10799 10799 10798 10799 10799 10800 10802 10804 10805 10806 10808 10810 10813 10815 10818 10821 10824 10827 10830 10833 10836 10839 10842 10845 10847 10850 10852 10854 10857 10859 10860 10862 10864 10865
10802 10801 10800 10800 10800 10799 10800 10798 10798 10798 10798 10797 10796 10796 10795 10796 10796 10796 10796 10796 10797 10798 10800 10802 10803 10805 10806 10807 10809 10812 10814 10817 10820 10823 10826 10829 10831 10834 10838 10841 10843 10845 10847 10849 10851 10852 10854 10855 10856
10800 10800 10799 10799 10798 10798 10799 10798 10797 10797 10798 10797 10796 10795 10794 10794 10794 10794 10794 10794 10795 10796 10796 10799 10801 10803 10805 10806 10807 10808 10809 10811 10813 10815 10818 10821 10824 10826 10829 10831 10834 10836 10838 10840 10841 10842 10844 10846 10847
10798 10798 10798 10797 10797 10797 10797 10798 10798 10798 10796 10795 10795 10794 10794 10792 10791 10790 10790 10791 10792 10794 10795 10796 10797 10799 10802 10804 10804 10804 10805 10807 10808 10809 10811 10813 10815 10817 10819 10822 10824 10826 10828 10830 10831 10832 10834 10836 10837
10797 10796 10795 10794 10794 10795 10795 10796 10797 10797 10796 10794 10795 10792 10792 10791 10790 10790 10789 10788 10789 10790 10792 10794 10795 10796 10796 10798 10799 10801 10802 10802 10802 10803 10805 10805 10805 10808 10809 10811 10813 10815 10818 10819 10820 10820 10821 10823 10825
10794 10793 10792 10792 10792 10792 10793 10795 10796 10797 10794 10793 10791 10791 10790 10789 10789 10790 10790 10791 10790 10789 10789 10790 10791 10791 10791 10791 10791 10792 10795 10796 10796 10796 10797 10798 10799 10799 10800 10801 10802 10804 10806 10807 10807 10808 10809 10810 10812
10792 10791 10790 10790 10789 10789 10790 10792 10794 10795 10795 10791 10789 10787 10788 10790 10789 10789 10789 10789 10789 10789 10787 10786 10785 10786 10787 10786 10786 10786 10786 10787 10788 10788 10788 10788 10789 10790 10791 10791 10793 10793 10794 10795 10795 10796 10798 10799 10800
10788 10788 10788 10787 10786 10786 10787 10787 10790 10792 10792 10790 10787 10784 10784 10785 10786 10788 10789 10788 10787 10786 10785 10784 10782 10781 10781 10781 10781 10782 10782 10782 10781 10781 10781 10780 10780 10780 10781 10780 10782 10783 10783 10784 10784 10785 10785 10786 10786
10785 10785 10785 10784 10783 10782 10783 10783 10786 10787 10788 10786 10786 10781 10779 10781 10782 10783 10783 10783 10782 10782 10782 10781 10780 10779 10777 10776 10776 10776 10776 10776 10775 10774 10773 10772 10772 10772 10772 10771 10771 10772 10772 10773 10774 10774 10774 10775 10775
10781 10781 10782 10780 10779 10779 10779 10780 10782 10782 10781 10784 10782 10780 10777 10775 10775 10775 10776 10777 10777 10776 10775 10774 10774 10774 10772 10772 10771 10770 10769 10768 10767 10767 10765 10764 10763 10762 10763 10763 10762 10762 10762 10763 10763 10763 10762 10763 10763
10776 10778 10777 10777 10775 10775 10775 10775 10777 10778 10778 10776 10775 10775 10774 10773 10772 10772 10772 10771 10770 10770 10769 10767 10765 10765 10765 10765 10763 10763 10762 10760 10759 10758 10756 10755 10754 10753 10752 10753 10753 10754 10753 10753 10752 10752 10752 10751 10751
10771 10771 10771 10773 10773 10771 10769 10769 10771 10771 10773 10772 10769 10769 10768 10767 10766 10766 10765 10764 10763 10762 10761 10761 10760 10757 10756 10756 10756 10754 10751 10750 10749 10748 10746 10745 10744 10743 10743 10742 10741 10741 10742 10741 10742 10741 10741 10740 10740
10766 10765 10764 10765 10766 10766 10765 10764 10765 10765 10766 10765 10764 10762 10761 10760 10760 10760 10759 10758 10757 10755 10754 10752 10751 10750 10748 10746 10745 10744 10743 10741 10739 10739 10738 10736 10733 10732 10731 10730 10730 10731 10730 10730 10729 10730 10730 10730 10729
10760 10759 10757 10758 10758 10759 10757 10753 10757 10756 10757 10755 10755 10756 10755 10754 10753 10751 10750 10748 10745 10744 10743 10742 10741 10738 10737 10736 10735 10733 10731 10730 10729 10727 10726 10724 10722 10721 10719 10718 10717 10718 10718 10718 10717 10715 10716 10717 10718
10754 10753 10751 10751 10752 10755 10754 10747 10748 10751 10749 10747 10746 10744 10743 10744 10744 10743 10740 10738 10736 10734 10733 10730 10728 10726 10724 10723 10722 10720 10719 10716 10714 10714 10713 10712 10710 10708 10707 10707 10706 10705 10703 10703 10703 10702 10701 10702 10704
10748 10747 10746 10741 10745 10747 10747 10744 10736 10742 10740 10739 10737 10735 10734 10733 10733 10731 10730 10728 10726 10723 10721 10717 10715 10713 10711 10709 10707 10705 10704 10703 10701 10698 10696 10695 10695 10694 10693 10692 10690 10689 10689 10687 10687 10688 10689 10689 10687
10740 10740 10740 10734 10737 10740 10737 10737 10731 10732 10731 10729 10728 10727 10725 10724 10722 10721 10719 10717 10714 10712 10709 10706 10704 10701 10697 10695 10693 10690 10688 10684 10684 10682 10679 10677 10675 10674 10675 10675 10674 10672 10671 10671 10671 10671 10672 10673 10671
10731 10732 10729 10729 10728 10730 10729 10728 10725 10723 10723 10722 10719 10716 10714 10712 10711 10708 10704 10701 10698 10696 10694 10692 10690 10687 10684 10680 10677 10673 10670 10668 10665 10661 10659 10657 10654 10652 10652 10651 10651 10651 10651 10651 10651 10652 10654 10655 10653
10723 10720 10720 10721 10719 10721 10721 10721 10716 10714 10712 10711 10708 10705 10702 10700 10697 10694 10691 10687 10685 10681 10678 10676 10673 10671 10668 10665 10661 10656 10653 10650 10648 10645 10641 10638 10635 10634 10629 10626 10626 10626 10626 10628 10627 10629 10631 10632 10633
10713 10709 10711 10711 10712 10711 10711 10714 10709 10703 10700 10696 10694 10692 10689 10687 10683 10682 10678 10673 10670 10667 10663 10658 10656 10652 10649 10645 10642 10638 10635 10631 10628 10625 10623 10619 10615 10611 10609 10605 10602 10600 10599 10599 10601 10603 10604 10607 10608
10700 10699 10700 10700 10701 10703 10700 10699 10703 10695 10686 10682 10678 10675 10672 10669 10667 10664 10662 10657 10654 10649 10646 10641 10636 10631 10628 10624 10620 10617 10614 10610 10606 10601 10599 10594 10591 10589 10585 10581 10580 10577 10574 10572 10572 10573 10576 10577 10578
10687 10687 10687 10689 10688 10694 10684 10685 10693 10682 10675 10671 10666 10659 10656 10653 10649 10646 10642 10638 10633 10630 10624 10618 10612 10608 10604 10600 10595 10589 10585 10580 10577 10574 10571 10566 10563 10559 10555 10553 10552 10550 10547 10546 10545 10544 10545 10546 10549
10674 10674 10673 10675 10674 10679 10675 10674 10674 10666 10661 10657 10652 10647 10640 10635 10631 10626 10622 10619 10612 10608 10602 10596 10591 10584 10578 10573 10568 10565 10559 10551 10544 10541 10536 10532 10528 10525 10522 10520 10518 10516 10515 10513 10513 10513 10515 10516 10515
10660 10659 10656 10656 10660 10663 10663 10663 10659 10651 10644 10638 10632 10626 10621 10615 10609 10604 10599 10594 10587 10581 10574 10569 10564 10557 10550 10542 10535 10528 10522 10516 10511 10504 10499 10495 10492 10487 10484 10480 10478 10479 10477 10476 10476 10477 10475 10476 10479
10646 10644 10636 10638 10642 10645 10647 10647 10644 10635 10627 10618 10609 10604 10599 10593 10587 10581 10574 10565 10558 10551 10545 10539 10533 10525 10518 10511 10503 10495 10488 10481 10472 10466 10462 10459 10452 10446 10442 10438 10435 10434 10436 10434 10434 10436 10438 10438 10438
10627 10626 10623 10618 10620 10625 10633 10631 10625 10617 10606 10594 10587 10580 10574 10569 10563 10556 10548 10539 10529 10521 10514 10508 10502 10494 10486 10479 10471 10463 10455 10446 10437 10429 10422 10415 10410 10404 10399 10396 10392 10390 10389 10390 10391 10390 10391 10397 10398
10609 10611 10602 10595 10600 10596 10607 10615 10605 10592 10582 10573 10564 10558 10552 10545 10538 10529 10520 10512 10501 10492 10487 10480 10471 10461 10452 10443 10435 10425 10415 10405 10396 10387 10379 10373 10367 10361 10357 10353 10350 10348 10346 10347 10348 10347 10349 10350 10355
10591 10588 10582 10580 10578 10573 10573 10600 10578 10565 10558 10544 10538 10533 10528 10521 10512 10502 10492 10482 10473 10466 10456 10445 10436 10425 10414 10404 10395 10385 10375 10364 10353 10345 10339 10333 10326 10321 10316 10312 10308 10306 10304 10304 10304 10306 10307 10310 10311